| time (UTC) | temp F | wind direction | speed MPH | gust MPH | rain 1hr in | rain 24hr in | rain mn in | humidity % | barometer mb |
| 20260905135636 | 74 | 271 | 11.0 | 16.0 | 0.00 | 0.00 | 0.00 | ||
| 20260905135234 | 74 | 262 | 12.0 | 19.0 | 0.00 | 0.00 | 0.00 | ||
| 20260905134833 | 74 | 238 | 11.0 | 17.0 | 0.00 | 0.00 | 0.00 | ||
| 20260905134431 | 74 | 260 | 10.0 | 16.0 | 0.00 | 0.00 | 0.00 | ||
| 20260905134029 | 74 | 255 | 14.0 | 21.0 | 0.00 | 0.00 | 0.00 | ||
| 20260905133621 | 74 | 275 | 12.0 | 21.0 | 0.00 | 0.00 | 0.00 | ||
| 20260905133219 | 74 | 272 | 7.0 | 13.0 | 0.00 | 0.00 | 0.00 | ||
| 20260905132817 | 73 | 261 | 9.0 | 13.0 | 0.00 | 0.00 | 0.00 | ||
| 20260905132416 | 73 | 262 | 10.0 | 15.0 | 0.00 | 0.00 | 0.00 | ||
| 20260905132014 | 73 | 267 | 12.0 | 16.0 | 0.00 | 0.00 | 0.00 | ||
| 20260905131613 | 74 | 230 | 12.0 | 18.0 | 0.00 | 0.00 | 0.00 | ||
| 20260905131210 | 75 | 240 | 8.0 | 16.0 | 0.00 | 0.00 | 0.00 | ||
| 20260905130809 | 75 | 241 | 7.0 | 11.0 | 0.00 | 0.00 | 0.00 | ||
| 20260905130407 | 75 | 218 | 9.0 | 14.0 | 0.00 | 0.00 | 0.00 | ||
| 20260905130006 | 75 | 226 | 9.0 | 17.0 | 0.00 | 0.00 | 0.00 | ||
| 20260905125646 | 74 | 226 | 9.0 | 15.0 | 0.00 | 0.00 | 0.00 | ||
| 20260905125558 | 74 | 226 | 9.0 | 15.0 | 0.00 | 0.00 | 0.00 | ||
| 20260905125155 | 74 | 261 | 9.0 | 13.0 | 0.00 | 0.00 | 0.00 | ||
| 20260905124353 | 73 | 238 | 10.0 | 14.0 | 0.00 | 0.00 | 0.00 | ||
| 20260905123951 | 72 | 255 | 9.0 | 12.0 | 0.00 | 0.00 | 0.00 | ||
| 20260905123548 | 73 | 244 | 7.0 | 12.0 | 0.00 | 0.00 | 0.00 | ||
| 20260905123146 | 74 | 248 | 11.0 | 18.0 | 0.00 | 0.00 | 0.00 | ||
| 20260905122745 | 74 | 266 | 9.0 | 13.0 | 0.00 | 0.00 | 0.00 | ||
| 20260905122344 | 74 | 233 | 8.0 | 14.0 | 0.00 | 0.00 | 0.00 | ||
| 20260905121941 | 73 | 245 | 9.0 | 16.0 | 0.00 | 0.00 | 0.00 | ||
| 20260905121533 | 73 | 251 | 10.0 | 16.0 | 0.00 | 0.00 | 0.00 | ||
| 20260905121131 | 73 | 230 | 10.0 | 14.0 | 0.00 | 0.00 | 0.00 | ||
| 20260905120730 | 73 | 256 | 8.0 | 13.0 | 0.00 | 0.00 | 0.00 | ||
| 20260905120328 | 72 | 260 | 9.0 | 13.0 | 0.00 | 0.00 | 0.00 | ||
| 20260905115926 | 73 | 227 | 9.0 | 18.0 | 0.00 | 0.00 | 0.00 | ||
| 20260905115525 | 73 | 227 | 10.0 | 16.0 | 0.00 | 0.00 | 0.00 | ||
| 20260905115122 | 72 | 238 | 6.0 | 10.0 | 0.00 | 0.00 | 0.00 | ||
| 20260905114721 | 72 | 241 | 10.0 | 20.0 | 0.00 | 0.00 | 0.00 | ||
| 20260905114319 | 73 | 216 | 7.0 | 12.0 | 0.00 | 0.00 | 0.00 | ||
| 20260905113917 | 72 | 255 | 8.0 | 15.0 | 0.00 | 0.00 | 0.00 | ||
| 20260905113509 | 72 | 213 | 10.0 | 19.0 | 0.00 | 0.00 | 0.00 | ||
| 20260905113107 | 71 | 245 | 10.0 | 14.0 | 0.00 | 0.00 | 0.00 | ||
| 20260905112705 | 71 | 249 | 9.0 | 15.0 | 0.00 | 0.00 | 0.00 | ||
| 20260905112306 | 71 | 245 | 9.0 | 13.0 | 0.00 | 0.00 | 0.00 | ||
| 20260905111902 | 72 | 219 | 7.0 | 16.0 | 0.00 | 0.00 | 0.00 | ||
| 20260905111501 | 71 | 245 | 8.0 | 10.0 | 0.00 | 0.00 | 0.00 | ||
| 20260905111058 | 70 | 241 | 9.0 | 17.0 | 0.00 | 0.00 | 0.00 | ||
| 20260905110657 | 71 | 243 | 8.0 | 12.0 | 0.00 | 0.00 | 0.00 | ||
| 20260905110256 | 72 | 223 | 7.0 | 13.0 | 0.00 | 0.00 | 0.00 | ||
| 20260905105855 | 71 | 219 | 8.0 | 17.0 | 0.00 | 0.00 | 0.00 | ||
| 20260905105445 | 71 | 212 | 9.0 | 14.0 | 0.00 | 0.00 | 0.00 | ||
| 20260905105044 | 70 | 226 | 10.0 | 18.0 | 0.00 | 0.00 | 0.00 | ||
| 20260905104643 | 70 | 246 | 12.0 | 19.0 | 0.00 | 0.00 | 0.00 | ||
| 20260905104242 | 70 | 248 | 10.0 | 12.0 | 0.00 | 0.00 | 0.00 | ||
| 20260905103840 | 70 | 237 | 8.0 | 17.0 | 0.00 | 0.00 | 0.00 | ||
| 20260905103438 | 70 | 246 | 11.0 | 17.0 | 0.00 | 0.00 | 0.00 | ||
| 20260905103036 | 70 | 228 | 8.0 | 10.0 | 0.00 | 0.00 | 0.00 | ||
| 20260905102635 | 71 | 225 | 10.0 | 14.0 | 0.00 | 0.00 | 0.00 | ||
| 20260905102234 | 70 | 249 | 11.0 | 16.0 | 0.00 | 0.00 | 0.00 | ||
| 20260905101831 | 69 | 245 | 12.0 | 18.0 | 0.00 | 0.00 | 0.00 | ||
| 20260905101423 | 70 | 239 | 13.0 | 19.0 | 0.00 | 0.00 | 0.00 | ||
| 20260905101021 | 69 | 220 | 12.0 | 16.0 | 0.00 | 0.00 | 0.00 | ||
| 20260905100620 | 69 | 240 | 10.0 | 14.0 | 0.00 | 0.00 | 0.00 | ||
| 20260905100218 | 70 | 258 | 10.0 | 14.0 | 0.00 | 0.00 | 0.00 | ||
| 20260905095816 | 70 | 219 | 11.0 | 20.0 | 0.00 | 0.00 | 0.00 | ||
| 20260905095415 | 69 | 254 | 12.0 | 17.0 | 0.00 | 0.00 | 0.00 | ||
| 20260905095013 | 69 | 245 | 6.0 | 9.0 | 0.00 | 0.00 | 0.00 | ||
| 20260905094611 | 69 | 230 | 10.0 | 16.0 | 0.00 | 0.00 | 0.00 | ||
| 20260905094210 | 68 | 230 | 11.0 | 17.0 | 0.00 | 0.00 | 0.00 | ||
| 20260905093808 | 68 | 234 | 11.0 | 20.0 | 0.00 | 0.00 | 0.00 | ||
| 20260905093400 | 67 | 254 | 11.0 | 13.0 | 0.00 | 0.00 | 0.00 | ||
| 20260905092958 | 68 | 235 | 11.0 | 17.0 | 0.00 | 0.00 | 0.00 | ||
| 20260905092556 | 69 | 227 | 9.0 | 13.0 | 0.00 | 0.00 | 0.00 | ||
| 20260905092155 | 68 | 225 | 11.0 | 15.0 | 0.00 | 0.00 | 0.00 | ||
| 20260905091754 | 69 | 238 | 8.0 | 15.0 | 0.00 | 0.00 | 0.00 | ||
| 20260905091353 | 69 | 234 | 6.0 | 10.0 | 0.00 | 0.00 | 0.00 | ||
| 20260905090950 | 69 | 242 | 8.0 | 13.0 | 0.00 | 0.00 | 0.00 | ||
| 20260905090549 | 68 | 218 | 11.0 | 19.0 | 0.00 | 0.00 | 0.00 | ||
| 20260905090148 | 68 | 229 | 9.0 | 15.0 | 0.00 | 0.00 | 0.00 | ||
| 20260905085746 | 67 | 225 | 7.0 | 11.0 | 0.00 | 0.00 | 0.00 | ||
| 20260905085337 | 67 | 231 | 11.0 | 22.0 | 0.00 | 0.00 | 0.00 | ||
| 20260905084935 | 67 | 240 | 9.0 | 14.0 | 0.00 | 0.00 | 0.00 | ||
| 20260905084534 | 67 | 249 | 9.0 | 14.0 | 0.00 | 0.00 | 0.00 | ||
| 20260905084133 | 67 | 244 | 7.0 | 13.0 | 0.00 | 0.00 | 0.00 | ||
| 20260905083730 | 67 | 223 | 6.0 | 12.0 | 0.00 | 0.00 | 0.00 | ||
| 20260905083329 | 66 | 211 | 6.0 | 11.0 | 0.00 | 0.00 | 0.00 | ||
| 20260905082927 | 66 | 235 | 7.0 | 11.0 | 0.00 | 0.00 | 0.00 | ||
| 20260905082526 | 66 | 228 | 5.0 | 9.0 | 0.00 | 0.00 | 0.00 | ||
| 20260905082125 | 67 | 209 | 5.0 | 9.0 | 0.00 | 0.00 | 0.00 | ||
| 20260905081722 | 67 | 216 | 4.0 | 8.0 | 0.00 | 0.00 | 0.00 | ||
| 20260905081314 | 66 | 205 | 5.0 | 10.0 | 0.00 | 0.00 | 0.00 | ||
| 20260905080912 | 66 | 215 | 6.0 | 10.0 | 0.00 | 0.00 | 0.00 | ||
| 20260905080511 | 65 | 208 | 6.0 | 9.0 | 0.00 | 0.00 | 0.00 | ||
| 20260905080109 | 66 | 218 | 5.0 | 10.0 | 0.00 | 0.00 | 0.00 | ||
| 20260905075707 | 65 | 216 | 6.0 | 9.0 | 0.00 | 0.00 | 0.00 | ||
| 20260905075306 | 65 | 220 | 6.0 | 9.0 | 0.00 | 0.00 | 0.00 | ||
| 20260905074904 | 65 | 241 | 6.0 | 9.0 | 0.00 | 0.00 | 0.00 | ||
| 20260905074502 | 65 | 249 | 4.0 | 7.0 | 0.00 | 0.00 | 0.00 | ||
| 20260905074101 | 64 | 254 | 5.0 | 9.0 | 0.00 | 0.00 | 0.00 | ||
| 20260905073659 | 63 | 255 | 7.0 | 10.0 | 0.00 | 0.00 | 0.00 | ||
| 20260905073251 | 64 | 252 | 6.0 | 12.0 | 0.00 | 0.00 | 0.00 | ||
| 20260905072848 | 65 | 223 | 3.0 | 6.0 | 0.00 | 0.00 | 0.00 | ||
| 20260905072447 | 66 | 207 | 4.0 | 8.0 | 0.00 | 0.00 | 0.00 | ||
| 20260905072046 | 66 | 200 | 6.0 | 10.0 | 0.00 | 0.00 | 0.00 | ||
| 20260905071644 | 67 | 199 | 3.0 | 4.0 | 0.00 | 0.00 | 0.00 | ||
| 20260905071243 | 66 | 192 | 4.0 | 7.0 | 0.00 | 0.00 | 0.00 | ||
| 20260905070840 | 67 | 225 | 2.0 | 4.0 | 0.00 | 0.00 | 0.00 | ||
| 20260905070440 | 67 | 225 | 3.0 | 6.0 | 0.00 | 0.00 | 0.00 | ||
| 20260905070038 | 66 | 225 | 3.0 | 7.0 | 0.00 | 0.00 | 0.00 | ||
| 20260905065636 | 65 | 248 | 3.0 | 5.0 | 0.00 | 0.00 | 0.00 | ||
| 20260905065227 | 62 | 270 | 4.0 | 5.0 | 0.00 | 0.00 | 0.00 | ||
| 20260905064825 | 62 | 270 | 5.0 | 7.0 | 0.00 | 0.00 | 0.00 | ||
| 20260905064424 | 62 | 247 | 4.0 | 5.0 | 0.00 | 0.00 | 0.00 | ||
| 20260905064023 | 64 | 244 | 3.0 | 8.0 | 0.00 | 0.00 | 0.00 | ||
| 20260905063620 | 63 | 250 | 5.0 | 6.0 | 0.00 | 0.00 | 0.00 | ||
| 20260905063219 | 62 | 252 | 4.0 | 6.0 | 0.00 | 0.00 | 0.00 | ||
| 20260905062818 | 62 | 262 | 4.0 | 6.0 | 0.00 | 0.00 | 0.00 | ||
| 20260905062417 | 63 | 268 | 5.0 | 7.0 | 0.00 | 0.00 | 0.00 | ||
| 20260905062014 | 62 | 270 | 4.0 | 6.0 | 0.00 | 0.00 | 0.00 | ||
| 20260905061612 | 62 | 251 | 4.0 | 6.0 | 0.00 | 0.00 | 0.00 | ||
| 20260905060802 | 62 | 247 | 5.0 | 8.0 | 0.00 | 0.00 | 0.00 | ||
| 20260905060402 | 61 | 239 | 9.0 | 14.0 | 0.00 | 0.00 | 0.00 | ||
| 20260905055959 | 60 | 256 | 6.0 | 10.0 | 0.00 | 0.00 | 0.00 | ||
| 20260905055557 | 60 | 257 | 6.0 | 9.0 | 0.00 | 0.00 | 0.00 | ||
| 20260905055156 | 60 | 265 | 7.0 | 10.0 | 0.00 | 0.00 | 0.00 | ||
| 20260905054754 | 61 | 246 | 6.0 | 11.0 | 0.00 | 0.00 | 0.00 | ||
| 20260905054352 | 63 | 243 | 5.0 | 8.0 | 0.00 | 0.00 | 0.00 | ||
| 20260905053951 | 62 | 259 | 7.0 | 10.0 | 0.00 | 0.00 | 0.00 | ||
| 20260905053549 | 61 | 264 | 7.0 | 9.0 | 0.00 | 0.00 | 0.00 | ||
| 20260905053141 | 61 | 267 | 6.0 | 9.0 | 0.00 | 0.00 | 0.00 | ||
| 20260905052738 | 62 | 266 | 5.0 | 9.0 | 0.00 | 0.00 | 0.00 | ||
| 20260905052337 | 63 | 261 | 6.0 | 11.0 | 0.00 | 0.00 | 0.00 | ||
| 20260905051936 | 67 | 250 | 5.0 | 8.0 | 0.00 | 0.00 | 0.00 | ||
| 20260905051535 | 66 | 253 | 6.0 | 8.0 | 0.00 | 0.00 | 0.00 | ||
| 20260905051132 | 65 | 249 | 6.0 | 9.0 | 0.00 | 0.00 | 0.00 | ||
| 20260905050731 | 66 | 207 | 3.0 | 6.0 | 0.00 | 0.00 | 0.00 | ||
| 20260905050330 | 64 | 202 | 3.0 | 4.0 | 0.00 | 0.00 | 0.00 | ||
| 20260905045929 | 64 | 202 | 3.0 | 5.0 | 0.00 | 0.00 | 0.00 | ||
| 20260905045527 | 63 | 202 | 2.0 | 4.0 | 0.00 | 0.00 | 0.00 | ||
| 20260905044715 | 61 | 135 | 1.0 | 3.0 | 0.00 | 0.00 | 0.00 | ||
| 20260905044314 | 62 | 225 | 1.0 | 3.0 | 0.00 | 0.00 | 0.00 | ||
| 20260905043913 | 64 | 225 | 3.0 | 5.0 | 0.00 | 0.00 | 0.00 | ||
| 20260905043509 | 65 | 209 | 3.0 | 4.0 | 0.00 | 0.00 | 0.00 | ||
| 20260905043109 | 64 | 202 | 0.0 | 1.0 | 0.00 | 0.00 | 0.00 | ||
| 20260905042706 | 64 | 202 | 0.0 | 0.0 | 0.00 | 0.00 | 0.00 | ||
| 20260905042307 | 65 | 202 | 0.0 | 1.0 | 0.00 | 0.00 | 0.00 | ||
| 20260905041903 | 66 | 202 | 0.0 | 2.0 | 0.00 | 0.00 | 0.00 | ||
| 20260905041501 | 68 | 158 | 2.0 | 3.0 | 0.00 | 0.00 | 0.00 | ||
| 20260905041053 | 64 | 135 | 0.0 | 1.0 | 0.00 | 0.00 | 0.00 | ||
| 20260905040651 | 64 | 135 | 0.0 | 2.0 | 0.00 | 0.00 | 0.00 | ||
| 20260905040249 | 65 | 162 | 2.0 | 3.0 | 0.00 | 0.00 | 0.00 | ||
| 20260905035848 | 63 | 180 | 0.0 | 0.0 | 0.00 | 0.00 | 0.00 | ||
| 20260905035446 | 63 | 180 | 0.0 | 1.0 | 0.00 | 0.00 | 0.00 | ||
| 20260905035045 | 64 | 193 | 2.0 | 3.0 | 0.00 | 0.00 | 0.00 | ||
| 20260905034643 | 66 | 212 | 3.0 | 4.0 | 0.00 | 0.00 | 0.00 | ||
| 20260905034241 | 69 | 202 | 3.0 | 6.0 | 0.00 | 0.00 | 0.00 | ||
| 20260905033840 | 68 | 199 | 2.0 | 3.0 | 0.00 | 0.00 | 0.00 | ||
| 20260905033438 | 68 | 180 | 2.0 | 4.0 | 0.00 | 0.00 | 0.00 | ||
| 20260905033030 | 67 | 180 | 1.0 | 2.0 | 0.00 | 0.00 | 0.00 | ||
| 20260905032627 | 68 | 180 | 1.0 | 2.0 | 0.00 | 0.00 | 0.00 | ||
| 20260905032226 | 68 | 180 | 1.0 | 2.0 | 0.00 | 0.00 | 0.00 | ||
| 20260905031825 | 68 | 180 | 2.0 | 3.0 | 0.00 | 0.00 | 0.00 | ||
| 20260905031424 | 67 | 135 | 1.0 | 3.0 | 0.00 | 0.00 | 0.00 | ||
| 20260905031021 | 66 | 135 | 0.0 | 2.0 | 0.00 | 0.00 | 0.00 | ||
| 20260905030620 | 66 | 135 | 0.0 | 1.0 | 0.00 | 0.00 | 0.00 | ||
| 20260905030219 | 68 | 146 | 2.0 | 3.0 | 0.00 | 0.00 | 0.00 | ||
| 20260905025818 | 68 | 180 | 1.0 | 2.0 | 0.00 | 0.00 | 0.00 | ||
| 20260905025414 | 67 | 180 | 0.0 | 1.0 | 0.00 | 0.00 | 0.00 | ||
| 20260905025006 | 67 | 180 | 0.0 | 1.0 | 0.00 | 0.00 | 0.00 | ||
| 20260905024605 | 67 | 180 | 0.0 | 2.0 | 0.00 | 0.00 | 0.00 | ||
| 20260905024204 | 68 | 180 | 0.0 | 0.0 | 0.00 | 0.00 | 0.00 | ||
| 20260905023803 | 68 | 180 | 1.0 | 2.0 | 0.00 | 0.00 | 0.00 | ||
| 20260905023400 | 68 | 180 | 1.0 | 2.0 | 0.00 | 0.00 | 0.00 | ||
| 20260905022959 | 68 | 180 | 1.0 | 2.0 | 0.00 | 0.00 | 0.00 | ||
| 20260905022557 | 69 | 214 | 2.0 | 4.0 | 0.00 | 0.00 | 0.00 | ||
| 20260905022156 | 68 | 315 | 0.0 | 0.0 | 0.00 | 0.00 | 0.00 | ||
| 20260905021754 | 68 | 315 | 2.0 | 4.0 | 0.00 | 0.00 | 0.00 | ||
| 20260905021352 | 68 | 312 | 2.0 | 6.0 | 0.00 | 0.00 | 0.00 | ||
| 20260905020944 | 69 | 21 | 1.0 | 2.0 | 0.00 | 0.00 | 0.00 | ||
| 20260905020542 | 67 | 21 | 0.0 | 2.0 | 0.00 | 0.00 | 0.00 | ||
| 20260905020139 | 69 | 21 | 0.0 | 2.0 | 0.00 | 0.00 | 0.00 | ||
| 20260905015738 | 69 | 21 | 1.0 | 2.0 | 0.00 | 0.00 | 0.00 | ||
| 20260905015336 | 68 | 20 | 1.0 | 2.0 | 0.00 | 0.00 | 0.00 | ||
| 20260905014936 | 69 | 21 | 0.0 | 0.0 | 0.00 | 0.00 | 0.00 | ||
| 20260905014533 | 68 | 21 | 0.0 | 1.0 | 0.00 | 0.00 | 0.00 | ||
| 20260905014132 | 67 | 21 | 1.0 | 3.0 | 0.00 | 0.00 | 0.00 | ||
| 20260905013731 | 68 | 21 | 1.0 | 3.0 | 0.00 | 0.00 | 0.00 | ||
| 20260905013329 | 67 | 21 | 2.0 | 3.0 | 0.00 | 0.00 | 0.00 | ||
| 20260905012921 | 69 | 21 | 2.0 | 4.0 | 0.00 | 0.00 | 0.00 | ||
| 20260905012518 | 71 | 21 | 2.0 | 3.0 | 0.00 | 0.00 | 0.00 | ||
| 20260905012117 | 69 | 21 | 0.0 | 1.0 | 0.00 | 0.00 | 0.00 | ||
| 20260905011716 | 69 | 2 | 1.0 | 2.0 | 0.00 | 0.00 | 0.00 | ||
| 20260905011314 | 69 | 0 | 0.0 | 2.0 | 0.00 | 0.00 | 0.00 | ||
| 20260905010912 | 70 | 0 | 0.0 | 1.0 | 0.00 | 0.00 | 0.00 | ||
| 20260905010510 | 68 | 0 | 0.0 | 2.0 | 0.00 | 0.00 | 0.00 | ||
| 20260905010109 | 68 | 0 | 0.0 | 1.0 | 0.00 | 0.00 | 0.00 | ||
| 20260905005708 | 68 | 0 | 0.0 | 2.0 | 0.00 | 0.00 | 0.00 | ||
| 20260905005306 | 68 | 340 | 3.0 | 4.0 | 0.00 | 0.00 | 0.00 | ||
| 20260905004857 | 68 | 338 | 0.0 | 2.0 | 0.00 | 0.00 | 0.00 | ||
| 20260905004455 | 69 | 338 | 1.0 | 2.0 | 0.00 | 0.00 | 0.00 | ||
| 20260905004054 | 69 | 338 | 1.0 | 2.0 | 0.00 | 0.00 | 0.00 | ||
| 20260905003652 | 69 | 356 | 1.0 | 3.0 | 0.00 | 0.00 | 0.00 | ||
| 20260905003250 | 70 | 0 | 1.0 | 3.0 | 0.00 | 0.00 | 0.00 | ||
| 20260905002849 | 69 | 338 | 1.0 | 2.0 | 0.00 | 0.00 | 0.00 | ||
| 20260905002448 | 69 | 338 | 2.0 | 4.0 | 0.00 | 0.00 | 0.00 | ||
| 20260905002047 | 69 | 344 | 1.0 | 3.0 | 0.00 | 0.00 | 0.00 | ||
| 20260905001644 | 69 | 353 | 2.0 | 4.0 | 0.00 | 0.00 | 0.00 | ||
| 20260905001243 | 69 | 338 | 1.0 | 2.0 | 0.00 | 0.00 | 0.00 | ||
| 20260905000835 | 68 | 317 | 4.0 | 7.0 | 0.00 | 0.00 | 0.00 | ||
| 20260905000433 | 68 | 335 | 4.0 | 5.0 | 0.00 | 0.00 | 0.00 | ||
| 20260905000031 | 70 | 313 | 4.0 | 8.0 | 0.00 | 0.00 | 0.00 | ||
| 20260904235630 | 69 | 341 | 3.0 | 5.0 | 0.00 | 0.00 | 0.00 | ||
| 20260904235228 | 69 | 352 | 1.0 | 5.0 | 0.00 | 0.00 | 0.00 | ||
| 20260904234827 | 69 | 338 | 3.0 | 7.0 | 0.00 | 0.00 | 0.00 | ||
| 20260904234424 | 70 | 301 | 2.0 | 7.0 | 0.00 | 0.00 | 0.00 | ||
| 20260904234023 | 70 | 329 | 5.0 | 9.0 | 0.00 | 0.00 | 0.00 | ||
| 20260904233622 | 69 | 324 | 5.0 | 9.0 | 0.00 | 0.00 | 0.00 | ||
| 20260904233220 | 70 | 320 | 4.0 | 8.0 | 0.00 | 0.00 | 0.00 | ||
| 20260904232811 | 70 | 323 | 4.0 | 9.0 | 0.00 | 0.00 | 0.00 | ||
| 20260904232409 | 70 | 305 | 4.0 | 8.0 | 0.00 | 0.00 | 0.00 | ||
| 20260904232008 | 69 | 316 | 5.0 | 10.0 | 0.00 | 0.00 | 0.00 | ||
| 20260904231607 | 70 | 336 | 7.0 | 10.0 | 0.00 | 0.00 | 0.00 | ||
| 20260904231205 | 70 | 318 | 6.0 | 11.0 | 0.00 | 0.00 | 0.00 | ||
| 20260904230803 | 70 | 318 | 7.0 | 13.0 | 0.00 | 0.00 | 0.00 | ||
| 20260904230401 | 71 | 307 | 7.0 | 12.0 | 0.00 | 0.00 | 0.00 | ||
| 20260904230000 | 71 | 315 | 6.0 | 14.0 | 0.00 | 0.00 | 0.00 | ||
| 20260904225600 | 71 | 322 | 8.0 | 13.0 | 0.00 | 0.00 | 0.00 | ||
| 20260904225156 | 72 | 313 | 8.0 | 18.0 | 0.00 | 0.00 | 0.00 | ||
| 20260904224749 | 73 | 317 | 7.0 | 12.0 | 0.00 | 0.00 | 0.00 | ||
| 20260904224347 | 73 | 311 | 6.0 | 12.0 | 0.00 | 0.00 | 0.00 | ||
| 20260904223946 | 74 | 319 | 9.0 | 20.0 | 0.00 | 0.00 | 0.00 | ||
| 20260904223544 | 76 | 311 | 8.0 | 13.0 | 0.00 | 0.00 | 0.00 | ||
| 20260904223142 | 77 | 298 | 12.0 | 19.0 | 0.00 | 0.00 | 0.00 | ||
| 20260904222741 | 78 | 286 | 14.0 | 18.0 | 0.00 | 0.00 | 0.00 | ||
| 20260904222339 | 79 | 236 | 10.0 | 14.0 | 0.00 | 0.00 | 0.00 | ||
| 20260904221937 | 79 | 241 | 9.0 | 13.0 | 0.00 | 0.00 | 0.00 | ||
| 20260904221536 | 79 | 225 | 11.0 | 20.0 | 0.00 | 0.00 | 0.00 | ||
| 20260904221134 | 79 | 224 | 9.0 | 18.0 | 0.00 | 0.00 | 0.00 | ||
| 20260904220726 | 79 | 230 | 9.0 | 15.0 | 0.00 | 0.00 | 0.00 | ||
| 20260904220324 | 79 | 231 | 11.0 | 20.0 | 0.00 | 0.00 | 0.00 | ||
| 20260904215922 | 79 | 240 | 10.0 | 16.0 | 0.00 | 0.00 | 0.00 | ||
| 20260904215521 | 79 | 228 | 11.0 | 18.0 | 0.00 | 0.00 | 0.00 | ||
| 20260904215119 | 79 | 226 | 11.0 | 15.0 | 0.00 | 0.00 | 0.00 | ||
| 20260904214718 | 79 | 219 | 8.0 | 15.0 | 0.00 | 0.00 | 0.00 | ||
| 20260904214315 | 79 | 221 | 7.0 | 11.0 | 0.00 | 0.00 | 0.00 | ||
| 20260904213914 | 79 | 225 | 7.0 | 11.0 | 0.00 | 0.00 | 0.00 | ||
| 20260904213513 | 79 | 218 | 8.0 | 15.0 | 0.00 | 0.00 | 0.00 | ||
| 20260904213111 | 79 | 223 | 8.0 | 12.0 | 0.00 | 0.00 | 0.00 | ||
| 20260904212702 | 80 | 229 | 10.0 | 17.0 | 0.00 | 0.00 | 0.00 | ||
| 20260904212300 | 80 | 235 | 10.0 | 21.0 | 0.00 | 0.00 | 0.00 | ||
| 20260904211859 | 80 | 235 | 9.0 | 11.0 | 0.00 | 0.00 | 0.00 | ||
| 20260904211458 | 80 | 220 | 9.0 | 17.0 | 0.00 | 0.00 | 0.00 | ||
| 20260904211054 | 80 | 222 | 7.0 | 12.0 | 0.00 | 0.00 | 0.00 | ||
| 20260904210653 | 80 | 207 | 6.0 | 16.0 | 0.00 | 0.00 | 0.00 | ||
| 20260904210251 | 80 | 207 | 8.0 | 14.0 | 0.00 | 0.00 | 0.00 | ||
| 20260904205850 | 80 | 200 | 10.0 | 18.0 | 0.00 | 0.00 | 0.00 | ||
| 20260904205449 | 80 | 202 | 8.0 | 12.0 | 0.00 | 0.00 | 0.00 | ||
| 20260904205046 | 80 | 206 | 9.0 | 15.0 | 0.00 | 0.00 | 0.00 | ||
| 20260904204638 | 80 | 205 | 11.0 | 19.0 | 0.00 | 0.00 | 0.00 | ||
| 20260904204236 | 80 | 212 | 11.0 | 14.0 | 0.00 | 0.00 | 0.00 | ||
| 20260904203835 | 80 | 210 | 10.0 | 16.0 | 0.00 | 0.00 | 0.00 | ||
| 20260904203433 | 80 | 209 | 14.0 | 22.0 | 0.00 | 0.00 | 0.00 | ||
| 20260904203031 | 80 | 204 | 13.0 | 24.0 | 0.00 | 0.00 | 0.00 | ||
| 20260904202630 | 79 | 206 | 12.0 | 21.0 | 0.00 | 0.00 | 0.00 | ||
| 20260904202228 | 79 | 200 | 12.0 | 23.0 | 0.00 | 0.00 | 0.00 | ||
| 20260904201826 | 79 | 206 | 13.0 | 21.0 | 0.00 | 0.00 | 0.00 | ||
| 20260904201425 | 79 | 213 | 12.0 | 22.0 | 0.00 | 0.00 | 0.00 | ||
| 20260904201023 | 79 | 205 | 11.0 | 16.0 | 0.00 | 0.00 | 0.00 | ||
| 20260904200615 | 79 | 205 | 9.0 | 15.0 | 0.00 | 0.00 | 0.00 | ||
| 20260904200212 | 78 | 199 | 10.0 | 14.0 | 0.00 | 0.00 | 0.00 | ||
| 20260904195811 | 78 | 201 | 10.0 | 19.0 | 0.00 | 0.00 | 0.00 | ||
| 20260904195410 | 79 | 201 | 13.0 | 20.0 | 0.00 | 0.00 | 0.00 | ||
| 20260904195008 | 78 | 199 | 9.0 | 17.0 | 0.00 | 0.00 | 0.00 | ||
| 20260904194607 | 78 | 201 | 10.0 | 15.0 | 0.00 | 0.00 | 0.00 | ||
| 20260904194204 | 78 | 207 | 10.0 | 15.0 | 0.00 | 0.00 | 0.00 | ||
| 20260904193803 | 77 | 211 | 7.0 | 13.0 | 0.00 | 0.00 | 0.00 | ||
| 20260904193402 | 77 | 207 | 9.0 | 17.0 | 0.00 | 0.00 | 0.00 | ||
| 20260904193000 | 77 | 199 | 7.0 | 10.0 | 0.00 | 0.00 | 0.00 | ||
| 20260904192551 | 76 | 178 | 5.0 | 8.0 | 0.00 | 0.00 | 0.00 | ||
| 20260904192149 | 76 | 160 | 4.0 | 8.0 | 0.00 | 0.00 | 0.00 | ||
| 20260904191748 | 76 | 164 | 4.0 | 8.0 | 0.00 | 0.00 | 0.00 | ||
| 20260904191347 | 76 | 161 | 4.0 | 6.0 | 0.00 | 0.00 | 0.00 | ||
| 20260904190944 | 75 | 151 | 3.0 | 8.0 | 0.00 | 0.00 | 0.00 | ||
| 20260904190543 | 76 | 156 | 4.0 | 7.0 | 0.00 | 0.00 | 0.00 | ||
| 20260904190142 | 76 | 153 | 5.0 | 7.0 | 0.00 | 0.00 | 0.00 | ||
| 20260904185741 | 77 | 174 | 2.0 | 5.0 | 0.00 | 0.00 | 0.00 | ||
| 20260904185338 | 77 | 185 | 4.0 | 6.0 | 0.00 | 0.00 | 0.00 | ||
| 20260904184937 | 77 | 188 | 3.0 | 8.0 | 0.00 | 0.00 | 0.00 | ||
| 20260904184529 | 77 | 180 | 3.0 | 4.0 | 0.00 | 0.00 | 0.00 | ||
| 20260904184127 | 77 | 180 | 1.0 | 4.0 | 0.00 | 0.00 | 0.00 | ||
| 20260904183726 | 78 | 180 | 3.0 | 6.0 | 0.00 | 0.00 | 0.00 | ||
| 20260904183324 | 78 | 180 | 4.0 | 6.0 | 0.00 | 0.00 | 0.00 | ||
| 20260904182921 | 78 | 189 | 4.0 | 6.0 | 0.00 | 0.00 | 0.00 | ||
| 20260904182520 | 78 | 199 | 5.0 | 6.0 | 0.00 | 0.00 | 0.00 | ||
| 20260904182119 | 78 | 192 | 3.0 | 5.0 | 0.00 | 0.00 | 0.00 | ||
| 20260904181716 | 78 | 195 | 6.0 | 12.0 | 0.00 | 0.00 | 0.00 | ||
| 20260904181315 | 78 | 202 | 3.0 | 5.0 | 0.00 | 0.00 | 0.00 | ||
| 20260904180914 | 78 | 188 | 4.0 | 8.0 | 0.00 | 0.00 | 0.00 | ||
| 20260904180506 | 78 | 201 | 6.0 | 8.0 | 0.00 | 0.00 | 0.00 | ||
| 20260904175702 | 78 | 195 | 6.0 | 8.0 | 0.00 | 0.00 | 0.00 | ||
| 20260904175301 | 78 | 189 | 7.0 | 10.0 | 0.00 | 0.00 | 0.00 | ||
| 20260904174859 | 78 | 185 | 8.0 | 10.0 | 0.00 | 0.00 | 0.00 | ||
| 20260904174457 | 79 | 192 | 7.0 | 10.0 | 0.00 | 0.00 | 0.00 | ||
| 20260904174055 | 79 | 186 | 8.0 | 12.0 | 0.00 | 0.00 | 0.00 | ||
| 20260904173654 | 79 | 185 | 8.0 | 12.0 | 0.00 | 0.00 | 0.00 | ||
| 20260904173252 | 79 | 200 | 8.0 | 12.0 | 0.00 | 0.00 | 0.00 | ||
| 20260904172850 | 79 | 172 | 7.0 | 9.0 | 0.00 | 0.00 | 0.00 | ||
| 20260904172441 | 79 | 185 | 7.0 | 9.0 | 0.00 | 0.00 | 0.00 | ||
| 20260904172039 | 79 | 183 | 8.0 | 10.0 | 0.00 | 0.00 | 0.00 | ||
| 20260904171238 | 79 | 202 | 6.0 | 10.0 | 0.00 | 0.00 | 0.00 | ||
| 20260904170834 | 79 | 202 | 9.0 | 11.0 | 0.00 | 0.00 | 0.00 | ||
| 20260904170434 | 80 | 194 | 10.0 | 17.0 | 0.00 | 0.00 | 0.00 | ||
| 20260904170032 | 79 | 209 | 6.0 | 9.0 | 0.00 | 0.00 | 0.00 | ||
| 20260904165631 | 79 | 205 | 7.0 | 11.0 | 0.00 | 0.00 | 0.00 | ||
| 20260904165229 | 80 | 208 | 7.0 | 11.0 | 0.00 | 0.00 | 0.00 | ||
| 20260904164827 | 80 | 205 | 7.0 | 11.0 | 0.00 | 0.00 | 0.00 | ||
| 20260904164419 | 80 | 215 | 7.0 | 12.0 | 0.00 | 0.00 | 0.00 | ||
| 20260904164017 | 81 | 203 | 6.0 | 10.0 | 0.00 | 0.00 | 0.00 | ||
| 20260904163615 | 82 | 206 | 8.0 | 12.0 | 0.00 | 0.00 | 0.00 | ||
| 20260904163214 | 82 | 217 | 9.0 | 16.0 | 0.00 | 0.00 | 0.00 | ||
| 20260904162812 | 82 | 212 | 10.0 | 14.0 | 0.00 | 0.00 | 0.00 | ||
| 20260904162411 | 81 | 200 | 11.0 | 20.0 | 0.00 | 0.00 | 0.00 | ||
| 20260904162009 | 83 | 205 | 9.0 | 13.0 | 0.00 | 0.00 | 0.00 | ||
| 20260904161607 | 82 | 196 | 10.0 | 18.0 | 0.00 | 0.00 | 0.00 | ||
| 20260904161206 | 81 | 195 | 8.0 | 12.0 | 0.00 | 0.00 | 0.00 | ||
| 20260904160804 | 80 | 212 | 8.0 | 15.0 | 0.00 | 0.00 | 0.00 | ||
| 20260904160356 | 80 | 197 | 8.0 | 13.0 | 0.00 | 0.00 | 0.00 | ||
| 20260904155953 | 80 | 213 | 8.0 | 14.0 | 0.00 | 0.00 | 0.00 | ||
| 20260904155552 | 80 | 197 | 6.0 | 9.0 | 0.00 | 0.00 | 0.00 | ||
| 20260904155151 | 80 | 202 | 10.0 | 16.0 | 0.00 | 0.00 | 0.00 | ||
| 20260904154750 | 79 | 201 | 8.0 | 11.0 | 0.00 | 0.00 | 0.00 | ||
| 20260904154347 | 79 | 203 | 6.0 | 10.0 | 0.00 | 0.00 | 0.00 | ||
| 20260904153945 | 79 | 206 | 7.0 | 10.0 | 0.00 | 0.00 | 0.00 | ||
| 20260904153544 | 79 | 210 | 8.0 | 12.0 | 0.00 | 0.00 | 0.00 | ||
| 20260904153143 | 79 | 224 | 8.0 | 13.0 | 0.00 | 0.00 | 0.00 | ||
| 20260904152740 | 79 | 207 | 8.0 | 16.0 | 0.00 | 0.00 | 0.00 | ||
| 20260904152332 | 79 | 214 | 7.0 | 11.0 | 0.00 | 0.00 | 0.00 | ||
| 20260904151930 | 79 | 208 | 9.0 | 14.0 | 0.00 | 0.00 | 0.00 | ||
| 20260904151530 | 79 | 221 | 8.0 | 14.0 | 0.00 | 0.00 | 0.00 | ||
| 20260904151128 | 79 | 227 | 7.0 | 10.0 | 0.00 | 0.00 | 0.00 | ||
| 20260904150725 | 79 | 225 | 10.0 | 14.0 | 0.00 | 0.00 | 0.00 | ||
| 20260904150325 | 79 | 214 | 10.0 | 20.0 | 0.00 | 0.00 | 0.00 | ||
| 20260904145923 | 79 | 216 | 11.0 | 17.0 | 0.00 | 0.00 | 0.00 | ||
| 20260904145521 | 79 | 216 | 9.0 | 15.0 | 0.00 | 0.00 | 0.00 | ||
| 20260904145119 | 80 | 213 | 9.0 | 14.0 | 0.00 | 0.00 | 0.00 | ||
| 20260904144716 | 80 | 224 | 10.0 | 14.0 | 0.00 | 0.00 | 0.00 | ||
| 20260904144308 | 80 | 230 | 11.0 | 19.0 | 0.00 | 0.00 | 0.00 | ||
| 20260904143907 | 80 | 225 | 11.0 | 19.0 | 0.00 | 0.00 | 0.00 | ||
| 20260904143504 | 80 | 205 | 13.0 | 18.0 | 0.00 | 0.00 | 0.00 | ||
| 20260904143103 | 80 | 231 | 11.0 | 18.0 | 0.00 | 0.00 | 0.00 | ||
| 20260904142701 | 80 | 225 | 11.0 | 16.0 | 0.00 | 0.00 | 0.00 | ||
| 20260904142300 | 81 | 208 | 12.0 | 19.0 | 0.00 | 0.00 | 0.00 | ||
| 20260904141857 | 81 | 207 | 9.0 | 14.0 | 0.00 | 0.00 | 0.00 | ||
| 20260904141456 | 80 | 217 | 8.0 | 15.0 | 0.00 | 0.00 | 0.00 | ||
| 20260904141055 | 80 | 204 | 13.0 | 24.0 | 0.00 | 0.00 | 0.00 | ||
| 20260904140653 | 80 | 222 | 12.0 | 19.0 | 0.00 | 0.00 | 0.00 | ||
| 20260904140245 | 80 | 215 | 14.0 | 22.0 | 0.00 | 0.00 | 0.00 | ||
| 20260904135842 | 80 | 210 | 10.0 | 14.0 | 0.00 | 0.00 | 0.00 |